Simultaneous Nadir Overpasses (SNOs) Predictions

Prediction of SNOs between NOAA-15 and METOP-C Satellite Orbit:

Table of predicted SNOs for the next 14.0 days since TLE Epoch: 2/13/2021
Index Date (NOAA-15) Time (NOAA-15) Lat,Lon (NOAA-15) SZA (NOAA-15 ) Date (METOP-C) Time (METOP-C) Lat,Lon (METOP-C) SZA (METOP-C ) Distance(km) Time Diff (sec)
1 02/13/2021 12:10:44 -80.98,-145.83 84.44 02/13/2021 12:09:29 -80.98,-145.82 84.47 0.45 75
2 02/13/2021 13:01:14 80.97, 21.68 95.56 02/13/2021 13:00:08 80.99, 21.78 95.55 2.35 66
3 02/13/2021 13:51:46 -80.98,-170.98 84.46 02/13/2021 13:50:50 -80.99,-170.95 84.47 1.35 56
4 02/13/2021 14:42:17 80.99, -3.82 95.52 02/13/2021 14:41:30 80.98, -3.71 95.51 1.96 47
5 02/13/2021 15:32:49 -80.99, 163.51 84.50 02/13/2021 15:32:12 -80.98, 163.56 84.51 1.17 37
6 02/13/2021 16:23:19 80.98, -28.96 95.50 02/13/2021 16:22:51 80.99, -28.84 95.51 2.58 28
7 02/13/2021 17:13:51 -80.98, 138.37 84.52 02/13/2021 17:13:33 -80.99, 138.44 84.51 1.52 18
8 02/13/2021 18:04:22 80.99, -54.47 95.47 02/13/2021 18:04:13 80.99, -54.33 95.47 2.54 9
9 02/13/2021 18:54:54 -80.99, 112.86 84.55 02/13/2021 18:54:55 -80.98, 112.95 84.55 1.94 1
10 02/13/2021 19:45:24 80.99, -79.61 95.45 02/13/2021 19:45:34 81.00, -79.45 95.48 2.92 10
11 02/13/2021 20:35:56 -80.99, 87.72 84.57 02/13/2021 20:36:16 -80.99, 87.83 84.55 2.02 20
12 02/13/2021 21:26:27 81.00,-105.11 95.42 02/13/2021 21:26:56 80.99,-104.94 95.43 3.14 29
13 02/13/2021 22:16:59 -81.00, 62.21 84.60 02/13/2021 22:17:38 -80.99, 62.34 84.59 2.73 39
14 02/13/2021 23:07:29 80.99,-130.25 95.40 02/13/2021 23:08:18 80.98,-130.43 95.39 3.29 49
15 02/13/2021 23:58:01 -80.99, 37.06 84.62 02/13/2021 23:58:59 -81.00, 37.21 84.59 2.67 58
16 02/14/2021 00:48:31 80.99,-155.39 95.38 02/14/2021 00:49:39 80.99,-155.55 95.39 2.90 68



Historial Predications of SNOs between NOAA-15 and METOP-C
